Volver al catálogo

STARLINK-11322

ActivoComunicacionesVLEO
NORAD 61542·PAYLOAD·🇺🇸 United States

Lanzado Oct 15, 2024 desde Vandenberg Space Force Base

Loading…

Próximos Pases (próximas 24 horas)

TLE

ActualizadoSource: CelesTrak SupGP

Época: Sep 14, 2026, 14:24 UTC

1 61542C 24184L   26257.60048611 -.00051644  00000+0 -42544-3 0  2575
2 61542  53.1575  25.2562 0000924  91.9508 297.1648 15.69733852    12

Sigue STARLINK-11322 en tiempo real con AllMySat

Download on the App Store